Location: F?ge?el
(45.8833°N, 22.5833°E)
Time: 04:56:35
(UTC+00:00)

ATLAS 2AS CENTAUR R/B - Pass Details

Date: 17 November 2025
Orbit: 1047 x 1164 km, 63.7° (Epoch: 04 December)

Event Time Altitude Azimuth Distance (km) Brightness Sun altitude
Rises 18:18:32 0° 321° (NW) 3,842 6.2 -35.0°
Reaches altitude 10° 18:21:11 10° 322° (NW) 2,877 5.4 -35.5°
Enters shadow 18:25:35 44° 328° (NNW) 1,424 3.5 -36.2°
